Tracking 25710 objects as of 6-Jul-2022
HD Live streaming from Space Station
objects crossing your sky now

DELTA 1 R/B

Track DELTA 1 R/B now!
10-day predictions


NORAD ID: 10704
Int'l Code: 1978-026C
Perigee: 890.6 km
Apogee: 995.6 km
Inclination: 99.0 °
Period: 103.8 minutes
Semi major axis: 7314 km
RCS: 5.2616 m2 (large)
Launch date: March 5, 1978
Source: United States (US)
Launch site: AIR FORCE WESTERN TEST RANGE (AFWTR)

Note: This is a ROCKET BODY
aabbcc
Your satellite tracking list
Your tracking list is empty




NASA's NSSDC Master Catalog

Two Line Element Set (TLE):
1 10704U 78026C   22186.45021722 -.00000001  00000-0  34140-4 0  9995
2 10704  98.9822  84.7271 0071781 255.1343 104.1856 13.87908433 97421
Source of the keplerian elements: AFSPC